Location: Miss�
(46.9484°N, 0.1922°W)
Time: 08:44:12
(UTC+00:00)

Nadezhda 3 Rocket - Pass Details

Date: 02 March 2021
Orbit: 957 x 999 km, 82.9° (Epoch: 12 April)

Event Time Altitude Azimuth Distance (km) Brightness Sun altitude
Rises 18:45:51 0° 352° (N) 3,723 7.2 -10.7°
Reaches altitude 10° 18:48:23 10° 354° (N) 2,774 6.5 -11.1°
Maximum altitude 18:54:47 76° 80° (E) 1,033 4.0 -12.2°
Drops below altitude 10° 19:01:08 10° 166° (SSE) 2,761 6.2 -13.3°
Sets 19:03:40 0° 168° (SSE) 3,705 6.9 -13.7°
